contact:dominique.lefevre@mio.osupytheas.fr, maurice.libes@osupytheas.fr
Project:EMSO Ligure-ouest http://www.emso-fr.org/EMSO-France
Sensor Aquadopp, line 13 Serial AQD14315 
DOI : "https://doi.org/10.17882/74513; https://doi.org/10.17882/83244" 
Title:EMSO Ligure Ouest : Data ligne ALBATROSS capteur AQUADOPP - deploiement 2021
Id,Date,Profondeur,Latitude,Longitude,X_East,Y_North,Z_Up,Amplitude_X,Amplitude_Y,Amplitude_Z,Batterie,SoundSpeed,Heading,Pitch,Roll,Pressure,Temperature,Speed,Direction
, , m, degrees North, degrees East, m.s-1, m.s-1,m.s-1, 1, 1, 1, Volt, m.s-1, degree, degree, degree, dbar, degree_C, m.s-1, degree
13,2022-09-07T23:30:00,2400.0,42.79,6.0312,-0.009,0.008,-0.005,64.0,59.0,61.0,12.9,1504.9,0.0,0.0,-0.4,2392.992,13.34,0.012,311.6
13,2022-09-08T00:00:00,2400.0,42.79,6.0312,0.003,0.013,0.004,63.0,67.0,69.0,12.9,1504.9,1.0,0.0,-0.5,2392.956,13.34,0.013,13.0
13,2022-09-08T00:30:00,2400.0,42.79,6.0312,0.001,0.008,0.003,63.0,58.0,61.0,12.9,1504.9,2.5,0.1,-0.4,2392.945,13.34,0.008,7.1
13,2022-09-08T01:00:00,2400.0,42.79,6.0312,-0.005,0.015,0.009,69.0,60.0,59.0,12.9,1504.9,6.0,0.0,-0.4,2392.945,13.34,0.015,341.6
13,2022-09-08T01:30:00,2400.0,42.79,6.0312,0.01,-0.005,-0.026,66.0,55.0,60.0,12.9,1504.9,7.3,0.0,-0.4,2392.996,13.34,0.011,116.6
13,2022-09-08T02:00:00,2400.0,42.79,6.0312,0.004,0.002,-0.025,65.0,57.0,65.0,12.9,1504.9,9.8,0.0,-0.4,2392.997,13.34,0.004,63.4
13,2022-09-08T02:30:00,2400.0,42.79,6.0312,0.006,0.003,-0.024,71.0,60.0,61.0,12.9,1504.9,8.7,0.0,-0.4,2392.967,13.34,0.006,63.4
13,2022-09-08T03:00:00,2400.0,42.79,6.0312,0.011,0.034,0.006,67.0,57.0,58.0,12.9,1504.9,7.6,0.0,-0.3,2393.01,13.34,0.035,17.9
13,2022-09-08T03:30:00,2400.0,42.79,6.0312,0.02,0.015,-0.004,68.0,62.0,59.0,12.9,1504.9,13.3,0.0,-0.4,2393.058,13.34,0.025,53.1
13,2022-09-08T04:00:00,2400.0,42.79,6.0312,-0.005,-0.006,-0.031,66.0,61.0,60.0,12.9,1504.9,14.7,0.1,-0.4,2393.045,13.34,0.007,219.8
13,2022-09-08T04:30:00,2400.0,42.79,6.0312,0.025,0.009,-0.008,67.0,59.0,58.0,12.9,1504.9,14.5,0.1,-0.4,2393.055,13.34,0.026,70.2
13,2022-09-08T05:00:00,2400.0,42.79,6.0312,0.023,0.021,0.019,67.0,61.0,60.0,12.9,1504.9,10.4,0.0,-0.4,2393.041,13.34,0.031,47.6
13,2022-09-08T05:30:00,2400.0,42.79,6.0312,-0.003,0.022,0.007,63.0,58.0,66.0,12.9,1504.9,14.1,0.0,-0.3,2393.044,13.34,0.022,352.2
13,2022-09-08T06:00:00,2400.0,42.79,6.0312,0.009,0.024,-0.004,66.0,58.0,59.0,12.9,1504.9,4.8,0.1,-0.4,2393.053,13.34,0.025,20.6
13,2022-09-08T06:30:00,2400.0,42.79,6.0312,0.001,0.005,-0.013,66.0,57.0,58.0,12.9,1504.9,5.3,0.1,-0.4,2393.067,13.34,0.005,11.3
13,2022-09-08T07:00:00,2400.0,42.79,6.0312,0.002,0.002,-0.009,63.0,60.0,59.0,12.9,1504.9,0.9,0.1,-0.4,2393.066,13.34,0.002,45.0
13,2022-09-08T07:30:00,2400.0,42.79,6.0312,0.013,0.005,0.0,63.0,58.0,60.0,12.9,1504.9,350.1,0.0,-0.5,2393.037,13.34,0.013,69.0
13,2022-09-08T08:00:00,2400.0,42.79,6.0312,0.025,0.019,0.01,65.0,59.0,58.0,12.9,1504.9,348.4,0.0,-0.4,2393.036,13.34,0.031,52.8
13,2022-09-08T08:30:00,2400.0,42.79,6.0312,0.027,0.0,0.003,65.0,57.0,61.0,12.9,1504.9,346.8,0.1,-0.4,2393.032,13.34,0.026,90.0
13,2022-09-08T09:00:00,2400.0,42.79,6.0312,0.036,-0.002,0.034,67.0,60.0,60.0,12.9,1504.9,345.8,0.0,-0.4,2392.993,13.34,0.036,93.2
13,2022-09-08T09:30:00,2400.0,42.79,6.0312,0.0,0.007,0.016,67.0,60.0,65.0,12.9,1504.9,349.0,0.0,-0.4,2392.96,13.34,0.007,0.0
13,2022-09-08T10:00:00,2400.0,42.79,6.0312,0.0,-0.002,-0.024,66.0,56.0,56.0,12.9,1504.9,348.8,0.1,-0.5,2392.917,13.34,0.002,180.0
13,2022-09-08T10:30:00,2400.0,42.79,6.0312,0.003,-0.005,-0.003,67.0,58.0,58.0,12.9,1504.9,354.2,0.0,-0.4,2392.874,13.34,0.005,149.0
13,2022-09-08T11:00:00,2400.0,42.79,6.0312,0.016,-0.007,-0.021,66.0,57.0,55.0,12.9,1504.9,358.3,0.0,-0.4,2392.962,13.34,0.017,113.6
13,2022-09-08T11:30:00,2400.0,42.79,6.0312,0.037,0.011,-0.031,64.0,57.0,59.0,12.9,1504.9,358.6,0.0,-0.4,2392.924,13.34,0.038,73.4
13,2022-09-08T12:00:00,2400.0,42.79,6.0312,0.021,0.007,0.003,64.0,57.0,57.0,12.9,1504.9,5.2,0.1,-0.4,2392.923,13.34,0.022,71.6
13,2022-09-08T12:30:00,2400.0,42.79,6.0312,0.006,-0.001,-0.007,60.0,57.0,54.0,12.9,1504.9,13.9,0.0,-0.5,2392.982,13.34,0.006,99.5
13,2022-09-08T13:00:00,2400.0,42.79,6.0312,-0.009,0.021,-0.039,62.0,57.0,56.0,12.9,1504.9,21.3,0.0,-0.3,2392.956,13.34,0.022,336.8
13,2022-09-08T13:30:00,2400.0,42.79,6.0312,0.011,-0.002,-0.045,63.0,57.0,56.0,12.9,1504.9,25.0,0.1,-0.4,2392.924,13.34,0.011,100.3
13,2022-09-08T14:00:00,2400.0,42.79,6.0312,0.016,0.011,-0.001,63.0,55.0,57.0,12.9,1504.9,25.7,0.0,-0.4,2392.989,13.34,0.019,55.5
13,2022-09-08T14:30:00,2400.0,42.79,6.0312,0.018,0.006,-0.01,60.0,55.0,56.0,12.9,1504.9,25.8,0.0,-0.4,2392.96,13.34,0.018,71.6
13,2022-09-08T15:00:00,2400.0,42.79,6.0312,0.004,0.018,0.004,62.0,58.0,60.0,12.9,1504.9,39.2,0.1,-0.4,2393.046,13.34,0.018,12.5
13,2022-09-08T15:30:00,2400.0,42.79,6.0312,0.005,0.017,-0.02,62.0,53.0,59.0,12.9,1504.9,38.2,0.1,-0.5,2393.079,13.34,0.017,16.4
13,2022-09-08T16:00:00,2400.0,42.79,6.0312,0.03,0.007,-0.022,67.0,57.0,54.0,12.9,1504.9,28.0,0.0,-0.4,2393.074,13.34,0.03,76.9
13,2022-09-08T16:30:00,2400.0,42.79,6.0312,0.024,-0.001,-0.024,64.0,56.0,60.0,12.9,1504.9,18.7,0.0,-0.3,2393.117,13.34,0.024,92.4
13,2022-09-08T17:00:00,2400.0,42.79,6.0312,0.037,0.007,0.007,61.0,54.0,56.0,12.9,1504.9,26.7,0.1,-0.4,2393.166,13.34,0.037,79.3
13,2022-09-08T17:30:00,2400.0,42.79,6.0312,0.015,0.002,0.001,61.0,57.0,58.0,12.9,1504.9,22.6,0.0,-0.4,2393.141,13.34,0.015,82.4
13,2022-09-08T18:00:00,2400.0,42.79,6.0312,0.004,0.008,0.0,62.0,54.0,59.0,12.9,1504.9,25.9,0.0,-0.4,2393.124,13.34,0.008,26.6
13,2022-09-08T18:30:00,2400.0,42.79,6.0312,0.021,-0.01,-0.013,64.0,54.0,60.0,12.9,1504.9,16.2,0.0,-0.4,2393.173,13.34,0.023,115.5
13,2022-09-08T19:30:00,2400.0,42.79,6.0312,0.004,0.025,-0.022,69.0,57.0,57.0,12.9,1504.9,18.8,0.1,-0.4,2393.146,13.34,0.025,9.1
13,2022-09-08T20:00:00,2400.0,42.79,6.0312,0.021,-0.005,0.009,67.0,61.0,57.0,12.9,1504.9,13.2,0.0,-0.5,2393.08,13.34,0.021,103.4
13,2022-09-08T20:30:00,2400.0,42.79,6.0312,0.009,0.002,-0.016,62.0,58.0,59.0,12.9,1504.9,18.0,0.0,-0.4,2393.11,13.34,0.009,77.5
13,2022-09-08T21:00:00,2400.0,42.79,6.0312,-0.01,0.013,-0.029,63.0,58.0,59.0,12.9,1504.9,27.5,0.0,-0.4,2393.125,13.34,0.016,322.4
13,2022-09-08T21:30:00,2400.0,42.79,6.0312,0.016,0.021,-0.024,70.0,57.0,58.0,12.9,1504.9,14.5,0.0,-0.5,2393.071,13.34,0.026,37.3
13,2022-09-08T22:00:00,2400.0,42.79,6.0312,0.005,-0.005,-0.024,67.0,60.0,63.0,12.9,1504.9,22.1,0.1,-0.4,2393.049,13.34,0.007,135.0
13,2022-09-08T22:30:00,2400.0,42.79,6.0312,0.031,-0.008,0.003,67.0,61.0,61.0,12.9,1504.9,24.0,0.1,-0.4,2393.062,13.34,0.032,104.5
13,2022-09-08T23:00:00,2400.0,42.79,6.0312,0.0,-0.008,0.017,66.0,61.0,63.0,12.9,1504.9,24.6,0.1,-0.4,2392.998,13.34,0.008,180.0
